User: anonymous   Login
Location: Unspecified
(0.0000°N, 0.0000°E)
Time: 17:39:16
(UTC+02:00)
Language:

Iridium 15 - Orbit

View from above orbital plane
View from above orbital plane
View from above satellite
View from above satellite

Ground track
Ground track

The orbit data is extracted from the following two-line orbital elements,

1 24869U 97034A   17233.41186768  .00000129  00000-0  35625-4 0  9996
2 24869  86.4221 354.7860 0002532 102.8045 257.3436 14.38610295 53310
Epoch (UTC): 21 August 2017 09:53:05
Eccentricity: 0.0002532
inclination: 86.4221°
perigee height: 761 km
apogee height: 765 km
right ascension of ascending node: 354.7860°
argument of perigee: 102.8045°
revolutions per day: 14.38610295
mean anomaly at epoch: 257.3436°
orbit number at epoch: 5331

The dashed part of the orbit path shows where the satellite is in the earth's shadow,  

DLR